Regional Weather Roundup
Issued by NWS Sterling, VA

Home | Current Version | Previous Version | Graphics & Text | Print | Product List | Glossary On
Versions: 1 2 3 4 5 6 7 8 9 10 11 12 13 14 15 16 17 18 19 20 21 22 23 24 25 26 27 28 29 30 31 32 33 34 35 36 37 38 39 40 41 42 43 44 45 46 47 48 49 50
142
ASUS41 KLWX 192210
RWRLWX

REGIONAL WEATHER ROUNDUP
NATIONAL WEATHER SERVICE BALTIMORE MD/WASHINGTON DC
500 PM EST SUN NOV 19 2017

Note: "FAIR" indicates few or no clouds below 12,000 feet
with no significant weather and/or obstructions to visibility.
 TC=TEMPERATURE CELSIUS

 * =Non NWS site. Station does not report precipitation (e.g. rain,
    snow, etc.), thunder, or fog.

DCZ001-MDZ009-015-VAZ040>042-051-053>054-192300-
WASHINGTON METRO

CITY           SKY/WX    TMP DP  RH WIND       PRES   REMARKS
WASHINGTON NAT CLOUDY    48  28  46 W17G28    29.84R
DULLES         CLOUDY    44  27  51 NW13G22   29.84R
ANDREWS AFB    CLOUDY    46  26  46 W20G25    29.81R
FT BELVOIR     MOCLDY    47  24  40 NW18G35   29.84R
COLLEGE PARK*  CLOUDY    46  26  46 W8G17     29.81R
LEESBURG*      MOCLDY    45  30  57 NW13G18   29.84R
MANASSAS*      MOCLDY    45  25  45 NW9       29.85R
GAITHERSBURG*  MOCLDY    43  24  47 NW16G26   29.82R

$$

MDZ006>007-011-014-192300-
BALTIMORE METRO

CITY           SKY/WX    TMP DP  RH WIND       PRES   REMARKS
BWI AIRPORT    MOCLDY    45  27  49 W14       29.80R
MARTIN STATE   MOCLDY    46  30  53 W15G21    29.80R
FORT MEADE*    CLOUDY    45  28  53 W10G20    29.83R

$$

MDZ012-015-019>023-192300-
MARYLAND EASTERN SHORE

CITY           SKY/WX    TMP DP  RH WIND       PRES   REMARKS
OCEAN CITY     CLEAR     48  30  49 NW13G29   29.77R
SALISBURY      CLEAR     47  28  47 NW13G24   29.78R
CAMBRIDGE*     CLEAR     46  25  42 NW18G29   29.80R
EASTON*        MOCLDY    46  25  42 NW22G30   29.84R

$$

MDZ017>025-192300-
SOUTHERN MARYLAND

CITY           SKY/WX    TMP DP  RH WIND       PRES   REMARKS
PATUXENT RIVER PTCLDY    48  28  46 NW22G32   29.81R
ST INIGOES     NOT AVBL
LEONARDTOWN*   CLEAR     46  27  46 NW8G17    29.82R

$$

MDZ003>005-192300-
NORTH CENTRAL MARYLAND

CITY           SKY/WX    TMP DP  RH WIND       PRES   REMARKS
FREDERICK*     PTCLDY    45  19  36 NW21G29   29.85R
HAGERSTOWN APT CLOUDY    42  25  50 W14       29.80R
WESTMINSTER*   CLOUDY    43  27  52 NW17G25   29.78R

$$

MDZ501>502-192300-
WESTERN MARYLAND

CITY           SKY/WX    TMP DP  RH WIND       PRES   REMARKS
OAKLAND*       CLOUDY    28  28 100 W18G28    29.73S VSB 1   WCI  16
CUMBERLAND*    MOCLDY    41  32  70 W7        29.88R

$$

VAZ025>031-192300-
SHENANDOAH VALLEY

CITY           SKY/WX    TMP DP  RH WIND       PRES   REMARKS
WINCHESTER*    CLOUDY    41  27  56 W16       29.83R
FRONT ROYAL*   CLOUDY    43  25  49 MISG      29.83R
LURAY*         CLOUDY    43  27  52 SW9G16    29.84R
NEW MARKET*    CLOUDY    42  23  46 W9G16     29.86R
STAUNTON*      CLOUDY    41  26  55 NW10G17   29.89R
WAYNESBORO*    CLOUDY    41  23  48 W6        29.86R

$$

WVZ021-048>050-054>055-192300-
EASTERN WEST VIRGINIA PANHANDLE

CITY           SKY/WX    TMP DP  RH WIND       PRES   REMARKS
MARTINSBURG    CLOUDY    42  24  49 W10       29.82R
PETERSBURG*    CLOUDY    38  28  66 W13G18    29.87R

$$

VAZ036>039-050-192300-
CENTRAL FOOTHILLS

CITY           SKY/WX    TMP DP  RH WIND       PRES   REMARKS
CHARLOTTESVILL MOCLDY    48  23  37 VRB5      29.86R
CULPEPER*      CLOUDY    47  22  36 NW5       29.86R
ORANGE*        MOCLDY    45  27  49 NW8       29.85R
GORDONSVILLE*  CLOUDY    47  26  44 NW3       29.85R
WARRENTON*     NOT AVBL

$$

VAZ055>057-192300-
NORTH AND CENTRAL PIEDMONT

CITY           SKY/WX    TMP DP  RH WIND       PRES   REMARKS
FREDERICKSBRG* PTCLDY    48  27  42 NW13G23   29.84R
STAFFORD*      CLOUDY    46  24  41 NW16G24   29.89R

$$

NCZ024-NYZ072-PAZ021-071-VAZ022-071-192300-
OTHER REGIONAL OBSERVATIONS

CITY           SKY/WX    TMP DP  RH WIND       PRES   REMARKS
NEW YORK CITY  CLEAR     45  25  45 VRB6G20   29.65R
PHILADELPHIA   MOCLDY    48  24  39 W15G29    29.72R
PITTSBURGH     CLOUDY    35  32  88 W8        29.85R WCI  29
ROANOKE        MOCLDY    42  24  49 NW18G25   29.95R
RICHMOND       PTCLDY    53  26  35 NW13      29.82R
RALEIGH        PTCLDY    53  28  38 NW8G23    29.89R

$$

ANZ530>537-192300-
MARINE OBSERVATIONS

STATION/POSITION TIME  TEMP    WIND        PRES
                       AIR SEA DIR/SP/G
                 (UTC) (F)     (DEG/KT/KT) (MB)
THOMAS PT LIGHT  2200   47 54  310/ 15/ 17   N/A
BALT KEY BRIDGE  2148   47     290/ 21/ 26 1008.3R
COVE POINT       2148   48     340/ 23/ 32 1009.9R
LEWISETTA        2148   50 54  340/ 14/ 23 1009.2R
SOLOMONS ISLAND  2148   49 55  330/ 15/ 19 1009.0R
PINEY POINT      2148          360/ 22/ 24   N/A

$$





USA.gov is the U.S. government's official web portal to all federal, state and local government web resources and services.